Regional Weather Roundup
Issued by NWS

Home | Current Version | Previous Version | Text Only | Print | Product List | Glossary Off
Versions: 1 2 3 4 5 6 7 8 9 10 11 12 13 14 15 16 17 18 19 20 21 22 23 24 25 26 27 28 29 30 31 32 33 34 35 36 37 38 39 40 41 42 43 44 45 46 47 48 49 50

000
ASUS45 KSLC 231010
RWRUT

UTAH REGIONAL WEATHER ROUNDUP
NATIONAL WEATHER SERVICE SALT LAKE CITY UT
400 AM MDT SAT MAY 23 2015

UTZ001>011-023>025-231100-

NORTHERN UTAH

CITY           SKY/WX    TMP DP  RH WIND       PRES   REMARKS
BRIGHAM CITY   CLOUDY    52  47  85 NE3       29.92F
HILL AFB       LGT RAIN  48  48  99 S8        29.93S
LOGAN          LGT RAIN  50  47  89 SE5       29.92F
OGDEN          LGT RAIN  50  48  93 SE8       29.92S
PROVO AIRPORT  CLOUDY    48  43  81 SE3       29.95S
SALT LAKE CITY LGT RAIN  50  48  93 SE7       29.92S
VERNAL         MOCLDY    46  41  82 CALM      29.96S
WENDOVER       CLOUDY    54  48  82 S6        29.89F
HEBER CITY     DRIZZLE   45  37  76 W5        29.96S
WEST JORDAN    CLOUDY    48  46  93 CALM      29.94R

$$

UTZ012>022-026-027-231100-

SOUTHERN/CENTRAL UTAH

CITY           SKY/WX    TMP DP  RH WIND       PRES   REMARKS
BLANDING       PTCLDY    42  31  65 S5        30.08S
BRYCE CANYON   FOG       36  35  96 SE7       30.00S VSB 3/4 WCI  30
CEDAR CITY     CLOUDY    43  41  93 SW3       29.96F
DELTA          CLOUDY    46  42  88 SW7       29.94S
HANKSVILLE     MOCLDY    43  34  70 NW5       29.93F
MILFORD        CLOUDY    46  42  86 SW12      29.94S
MOAB/CYNLANDS  CLEAR     51  40  65 SE3       29.90F
PRICE          MOCLDY    45  38  76 N7        29.94F
ST GEORGE      CLOUDY    55  41  58 E6        29.97S
KANAB          CLOUDY    43  43 100 CALM      30.04S

$$

REGIONAL REPORTS     COLORADO/ARIZONA

CITY           SKY/WX    TMP DP  RH WIND       PRES   REMARKS
CRAIG, CO      PTCLDY    42  38  85 E9        30.00F
GRAND JUNCTION PTCLDY    47  42  83 E8        29.95S
RIFLE          MOCLDY    46  41  82 CALM      30.01S
MONTROSE       CLOUDY    48  37  65 E12       30.03F
CORTEZ         PTCLDY    37  34  89 CALM      30.03S
PAGE, AZ       MOCLDY    50  38  63 N5        29.97S
GRAND CANYON   CLOUDY    33  32  96 CALM      30.04F
KINGMAN        CLEAR     49  39  68 SE12      29.97S
FLAGSTAFF      CLOUDY    35  32  88 W5        30.05S WCI  31

$$

REGIONAL REPORTS    NEVADA/IDAHO/WYOMING

CITY           SKY/WX    TMP DP  RH WIND       PRES   REMARKS
LAS VEGAS, NV  PTCLDY    61  42  49 SW9       29.87S
ELY            CLOUDY    43  40  89 VRB3      29.98S
ELKO           CLOUDY    48  44  86 SW6       29.96S
POCATELLO, ID  LGT RAIN  51  51 100 N5        29.92R
BURLEY         PTCLDY    45  43  93 CALM      29.89S
EVANSTON, WY   CLOUDY    40  38  93 E5        29.98S
ROCK SPRINGS   PTCLDY    37  35  92 E7        29.99S WCI  32
KEMMERER       CLOUDY    39  37  93 S5        29.99F

$$



USA.gov is the U.S. government's official web portal to all federal, state and local government web resources and services.